Regional Weather Roundup
Issued by NWS Newport/Morehead, NC

Current Version | Previous Version | Graphics & Text | Print | Product List | Glossary Off
Versions: 1 2 3 4 5 6 7 8 9 10 11 12 13 14 15 16 17 18 19 20 21 22 23 24 25 26 27 28 29 30 31 32 33 34 35 36 37 38 39 40 41 42 43 44 45 46 47 48 49 50

000
ASUS42 KMHX 251525
RWRMHX
WEATHER ROUNDUP FOR EASTERN NORTH CAROLINA
NATIONAL WEATHER SERVICE NEWPORT/MOREHEAD CITY NC
1100 AM EDT TUE JUL 25 2017

NOTE: "FAIR" INDICATES FEW OR NO CLOUDS BELOW 12,000 FEET
WITH NO SIGNIFICANT WEATHER AND/OR OBSTRUCTIONS TO VISIBILITY

NCZ015>017-031-032-045>047-102-103-251600-
NORTH COAST

CITY           SKY/WX    TMP DP  RH WIND       PRES   REMARKS
EDENTON        PTSUNNY   84  74  71 CALM      30.06R
ELIZABETH CITY CLOUDY    84  73  69 N6        30.05R
KITTY HAWK     MOSUNNY   77  69  75 N6        30.04R
MANTEO         MOSUNNY   80  71  72 NE10      30.05R

$$

NCZ045>047-081-094-103-104-251600-
CENTRAL COAST

CITY           SKY/WX    TMP DP  RH WIND       PRES   REMARKS
FRISCO         CLOUDY    83  75  77 NW7       30.05R

$$

NCZ095-097-098-100-101-251600-
SOUTHERN COAST

CITY           SKY/WX    TMP DP  RH WIND       PRES   REMARKS
BEAUFORT       SUNNY     86  77  74 CALM      30.05R
CEDAR ISLAND   NOT AVBL
JACKSONVILLE   MOSUNNY   86  77  74 W5        30.04R
PINEY ISLAND   MOSUNNY  N/A N/A N/A W3        30.04R
WILMINGTON     MOSUNNY   87  75  67 CALM      30.05R


$$

NCZ011>013-027>030-043-044-078>080-089-090>093-098-251600-
COASTAL PLAIN

CITY           SKY/WX    TMP DP  RH WIND       PRES   REMARKS
AHOSKIE          N/A     81  71  72 NE3       30.06R
CLINTON        SUNNY     87  75  68 N5        30.06S
ELIZABETHTOWN  NOT AVBL
GOLDSBORO      SUNNY     87  74  65 NE3       30.04R
GREENVILLE     SUNNY     86  73  66 CALM      30.06S
HAVELOCK       SUNNY     87  75  67 CALM      30.05S
KENANSVILLE    SUNNY     86  73  66 CALM      30.06S
KINSTON        SUNNY     86  72  62 NW6       30.05R
NEW BERN       MOSUNNY   86  76  71 W5        30.05S
RICHLANDS      MOSUNNY   85  75  72 CALM      30.06R
ROCKY MOUNT    SUNNY     86  73  65 N7        30.05R
WASHINGTON     MOSUNNY   85  75  73 N3        30.05R
WHITEVILLE     MOSUNNY   84  75  73 CALM      30.06R

$$

AMZ130-135-150-152-154-156-158-170-250-252-270-ANZ085-086-088-633-658-670-251600-
MARINE OBSERVATIONS

STATION/POSITION TIME  TEMP    WIND        PRES    WAVE   SWELL
                       AIR SEA DIR/SP/G            HT/PER HT/PER
                 (UTC) (F)     (DEG/KT/KT) (MB)    (FT/S) (FT/S)
CHESAPEAKE LIGHT NOT AVBL
64 E VA BEACH    1450   77 77  360/ 14/ 16 1017.2    4/ 7   3/ 7
DUCK             1500   73 67   20/ 11/ 13 1017.1
2 E DUCK         1500      73                N/A     2/ 6
OREGON INLET     1500   79 80  350/ 11/ 15 1017.1
13E OREGON INLT  1448      73                N/A     3/ 6   3/ 6
HATTERAS CG      1500   80 78  290/  7/  8 1017.4
DIAMOND BUOY     1450   80 83  270/ 14/ 16 1017.1    4/ 6   2/ 8
CAPE LOOKOUT     1500   82     250/ 10/ 12 1017.4
BEAUFORT LAB     1500   83 79  210/  6/ 10 1017.0
30 SE NEW RVR IN 1508   82 84  240/  8/ 12 1017.8
30 SE NEW RVR IN 1513      84                N/A     4/ 6
27 SE WRIGHTSVLE 1508   82 83  230/ 10/ 14 1017.8
5 SE WRIGHTSVLE  1508   83 82  220/  8/ 14 1017.5
225 S CAPE HAT   1450   84 83  220/ 14/ 16 1020.3    5/ 6   2/11
41 SE CHARLESTON 1510   81 83  250/ 10/ 12 1017.9

$$




USA.gov is the U.S. government's official web portal to all federal, state and local government web resources and services.